Voltar ao catálogo

ATLAS F R/B

AtivoHEO
NORAD 11142·ROCKET BODY·🇺🇸 United States

Lançado Dec 11, 1978 de Vandenberg Space Force Base

Loading…

Próximas Passagens (próximas 24 horas)

TLE

AtualizadoSource: Space-Track

Época: Sep 5, 2026, 22:28 UTC

1 11142U 78112B   26248.93616482 -.00000009  00000-0  00000-0 0  9999
2 11142  64.2573 102.4164 4653680 245.9118  59.4412  5.34624786919995

Acompanhe ATLAS F R/B em tempo real com AllMySat

Download on the App Store